Temperature
8 8 8 8 9 9 9 10 11 10 9 8 8 7 6 6 5 5 4 4 5 5 6 6 7 7 7 7 8 8 8 8 8 8 8 8 8 8 8 8 8 8 8 8
7 8 9 8 8 8 8 9 9 9 8 8 7 6 6 5 4 4 4 3 4 4 5 5 6 6 6 7 7 7 7 7 7 7 7 7 7 7 7 7 7 7 7 7
9 8 9 9 7 8 8 8 9 9 8 7 6 6 5 4 4 3 3 3 3 3 4 4 4 5 5 5 6 6 6 6 6 6 7 7 7 7 6 6 6 6 6 6
8 9 8 8 6 7 7 7 7 7 6 6 6 4 3 3 3 3 2 2 3 3 3 3 3 4 4 4 5 5 5 5 5 5 6 6 6 6 6 6 6 6 6 6
9 9 8 7 6 6 7 7 6 6 6 5 4 4 4 2 2 2 2 2 2 2 2 2 2 3 3 3 3 3 4 4 4 4 5 5 5 5 5 5 5 5 5 5
8 9 9 8 6 5 7 8 6 5 5 4 4 7 6 2 2 2 2 2 2 2 2 2 2 2 2 2 2 2 3 3 3 3 3 4 4 4 4 4 4 4 4 4
8 8 9 7 5 5 8 8 5 4 4 4 4 5 3 2 2 2 1 1 1 1 1 1 1 1 1 1 1 1 2 2 2 2 2 2 3 3 3 3 3 3 3 3
8 8 8 5 5 7 7 4 4 3 3 3 2 2 2 1 1 1 1 1 1 1 1 1 0 0 0 0 0 1 1 1 1 1 1 1 2 2 2 2 2 2 3 2
8 8 5 4 5 4 4 3 3 3 2 2 1 1 1 1 1 1 1 0 0 -0 -0 -0 -0 -0 -1 -0 -0 -0 0 0 0 0 0 0 0 1 1 1 1 1 2 2
6 6 4 3 2 3 3 3 3 3 2 2 1 1 1 1 0 0 -0 -0 -1 -1 -1 -1 -1 -1 -1 -1 -1 -1 -1 -1 -1 -1 -0 -0 -0 -0 0 1 1 1 1 1
6 5 3 2 2 3 3 3 2 2 2 1 1 0 0 -0 -0 -0 -1 -1 -1 -1 -1 -1 -1 -2 -2 -2 -2 -2 -2 -2 -1 -1 -1 -1 -1 -1 -0 -0 0 0 0 1
7 6 5 4 3 3 2 2 2 2 1 1 0 0 -0 -0 -1 -1 -1 -1 -2 -2 -2 -2 -2 -2 -2 -2 -3 -3 -3 -3 -3 -3 -3 -2 -2 -2 -1 -1 -1 -0 -0 -0
4 4 3 3 3 3 2 2 1 1 1 0 0 -0 -1 -1 -1 -1 -1 -2 -2 -2 -2 -2 -2 -2 -3 -3 -3 -3 -3 -4 -4 -4 -3 -3 -3 -3 -2 -2 -1 -1 -1 -1
3 3 3 3 3 2 2 1 1 1 0 0 -0 -1 -1 -1 -1 -2 -2 -2 -3 -3 -3 -3 -3 -3 -3 -3 -4 -4 -4 -4 -4 -4 -4 -4 -4 -4 -4 -3 -2 -2 -1 -1
3 3 3 2 2 2 1 1 0 0 0 -0 -1 -1 -1 -2 -2 -2 -2 -3 -3 -3 -3 -3 -3 -3 -4 -4 -4 -4 -5 -5 -5 -5 -5 -5 -5 -5 -4 -4 -4 -3 -2 -2
2 2 2 2 2 1 1 0 0 -0 -0 -1 -1 -1 -2 -2 -2 -2 -3 -3 -3 -3 -4 -4 -4 -4 -4 -5 -5 -5 -5 -5 -5 -5 -5 -5 -5 -5 -5 -5 -4 -4 -3 -3
2 1 1 1 1 1 1 0 -0 -1 -1 -1 -2 -2 -2 -3 -3 -3 -3 -3 -4 -4 -4 -4 -4 -5 -5 -5 -5 -5 -5 -5 -6 -6 -6 -6 -6 -6 -5 -5 -5 -4 -4 -3
3 2 2 2 1 1 0 -0 -1 -1 -2 -2 -2 -2 -3 -3 -3 -4 -4 -4 -4 -4 -4 -5 -5 -5 -5 -5 -6 -6 -6 -6 -6 -6 -6 -6 -6 -6 -6 -5 -5 -5 -4 -4
2 2 1 1 0 0 -0 -1 -1 -2 -2 -2 -3 -3 -3 -4 -4 -4 -4 -5 -5 -5 -5 -5 -6 -6 -6 -6 -6 -6 -6 -6 -6 -6 -6 -6 -6 -6 -6 -6 -6 -5 -5 -4
1 1 1 0 -0 -0 -1 -1 -2 -2 -2 -3 -3 -3 -4 -4 -5 -5 -5 -5 -5 -6 -6 -6 -6 -6 -6 -6 -7 -7 -7 -7 -7 -7 -7 -6 -7 -6 -6 -6 -6 -5 -5 -5
1 1 0 -0 -1 -1 -1 -2 -2 -2 -3 -3 -4 -4 -5 -5 -5 -6 -6 -6 -6 -7 -7 -7 -7 -7 -7 -7 -8 -7 -7 -7 -7 -7 -7 -7 -7 -7 -6 -6 -6 -6 -5 -5
1 0 -0 -1 -1 -1 -2 -2 -3 -3 -3 -4 -4 -5 -5 -6 -6 -6 -7 -7 -7 -7 -8 -8 -8 -8 -8 -8 -8 -8 -8 -8 -8 -8 -8 -7 -7 -7 -7 -6 -6 -6 -6 -5
0 -0 -1 -1 -2 -2 -2 -3 -3 -4 -4 -4 -5 -6 -6 -6 -7 -7 -8 -8 -8 -8 -8 -8 -8 -9 -9 -9 -8 -8 -8 -8 -8 -8 -8 -8 -7 -7 -7 -7 -7 -6 -6 -6
-0 -1 -1 -2 -2 -2 -3 -3 -4 -4 -5 -5 -5 -6 -7 -7 -7 -8 -8 -8 -8 -9 -9 -9 -9 -9 -9 -9 -9 -9 -9 -9 -9 -8 -8 -8 -8 -8 -7 -7 -7 -6 -6 -6
-1 -1 -2 -2 -3 -3 -3 -4 -4 -5 -5 -5 -6 -7 -7 -8 -8 -8 -9 -9 -9 -9 -9 -9 -9 -9 -9 -9 -9 -9 -9 -9 -9 -9 -9 -9 -8 -8 -8 -7 -7 -7 -7 -6
-1 -2 -2 -3 -3 -4 -4 -5 -5 -5 -6 -6 -7 -7 -8 -8 -9 -9 -9 -9 -9 -10 -10 -10 -10 -10 -10 -10 -10 -10 -10 -9 -9 -9 -9 -9 -9 -8 -8 -8 -8 -7 -7 -7
-2 -2 -3 -3 -4 -4 -5 -5 -6 -6 -7 -7 -8 -8 -9 -9 -9 -9 -10 -10 -10 -10 -10 -10 -10 -10 -10 -10 -10 -10 -10 -10 -10 -10 -9 -9 -9 -9 -8 -8 -8 -8 -7 -7
Wind_Speed
6 4 4 5 6 6 5 4 4 7 7 5 4 4 4 5 5 7 8 9 10 10 10 10 10 10 10 9 9 8 7 6 5 4 3 3 3 4 5 6 6 7 7 7
4 5 5 6 6 5 5 5 7 7 4 4 4 4 4 4 4 5 6 7 8 9 9 10 11 11 11 10 10 8 7 7 6 5 4 4 4 4 5 6 7 8 8 9
2 2 0 3 4 2 3 2 2 3 3 5 4 3 2 2 2 4 5 6 7 8 8 9 10 10 11 11 10 9 8 7 7 6 6 5 4 5 7 7 8 8 9 9
2 1 1 2 2 0 2 2 1 3 4 4 3 2 2 1 2 3 5 6 7 8 8 9 9 9 10 9 9 9 9 8 8 7 7 6 6 7 7 7 8 9 9 10
1 1 1 1 1 1 1 1 1 3 4 3 3 2 2 1 2 4 5 6 6 7 8 8 9 9 9 9 9 9 9 9 9 9 9 8 8 8 7 7 8 8 9 10
2 1 2 2 3 1 2 2 4 4 5 4 3 3 1 1 3 4 5 5 6 7 8 8 9 9 9 9 9 10 10 10 10 9 9 9 9 8 7 7 8 8 8 9
2 2 1 2 2 3 4 1 6 5 4 4 3 2 2 2 3 4 5 6 7 8 8 8 9 9 10 10 10 11 11 11 11 10 10 10 9 8 7 7 7 8 9 9
3 4 3 5 5 5 0 4 5 5 4 3 2 1 2 3 4 5 6 6 7 7 8 8 9 9 10 10 11 11 11 11 11 10 9 8 9 8 8 8 8 9 9 9
3 1 2 4 3 1 2 4 4 4 4 3 3 3 4 4 5 6 7 7 7 8 10 9 9 9 11 12 12 12 12 12 11 11 10 9 9 9 8 8 8 8 8 9
4 5 4 5 4 3 3 4 4 3 3 3 4 4 5 5 6 7 7 8 8 9 10 10 10 10 11 11 11 12 12 12 11 11 10 9 8 8 7 8 8 8 8 9
5 3 3 6 8 6 5 4 4 3 3 4 4 5 6 6 7 7 8 8 9 9 11 12 12 12 11 11 11 12 12 12 11 10 10 10 9 9 9 10 10 10 9 9
5 5 5 4 6 8 7 6 5 4 3 4 5 6 6 7 8 8 9 9 10 11 11 12 12 13 12 11 11 12 11 11 10 9 9 9 9 10 11 13 15 17 15 12
1 3 3 3 5 7 6 6 5 4 4 5 5 6 7 8 8 9 10 10 11 11 12 13 13 13 12 11 11 12 12 12 10 9 9 9 9 9 10 10 13 15 16 16
4 5 3 4 5 6 5 4 3 3 4 5 6 6 7 8 9 10 11 11 11 12 13 13 13 14 12 11 11 12 12 12 11 10 10 9 9 9 9 9 9 8 10 15
6 4 3 4 5 5 4 3 3 4 4 5 6 7 8 9 10 11 11 11 11 12 13 12 13 14 12 11 11 12 11 10 10 10 10 10 9 9 9 10 9 8 7 8
7 5 5 5 5 5 4 4 5 5 5 6 7 8 9 10 11 12 12 11 11 13 13 13 14 13 12 11 11 11 10 12 12 10 10 10 9 9 9 9 9 8 8 7
9 7 6 5 6 5 5 5 5 6 6 7 8 9 9 10 11 12 12 11 11 13 13 13 14 13 12 11 11 10 10 10 12 11 9 9 9 9 9 9 9 8 8 8
6 6 6 5 5 5 5 5 5 6 7 7 8 8 9 10 11 12 12 12 12 13 13 12 12 12 12 11 10 9 9 10 9 9 9 9 9 9 9 9 9 9 8 8
5 5 5 4 3 3 4 4 5 6 6 7 8 9 10 10 11 12 12 12 13 14 12 11 14 13 12 12 11 9 10 10 10 10 9 11 11 9 8 9 9 8 8 7
5 5 4 3 2 2 3 4 5 6 6 6 8 9 10 11 11 11 12 12 11 10 12 14 14 12 12 11 12 9 10 10 11 10 9 9 9 9 9 9 9 8 8 7
6 5 4 2 1 2 3 4 4 6 6 6 7 9 11 12 11 10 11 12 11 11 13 15 12 11 11 11 13 10 10 10 10 10 9 9 9 9 9 8 8 8 7 7
5 4 3 2 2 3 3 3 4 6 7 7 8 9 10 11 11 11 11 10 11 14 13 11 10 13 15 15 10 10 10 10 10 9 9 9 9 9 9 8 8 7 7 7
4 3 3 2 2 3 4 4 4 5 7 8 8 9 9 10 9 9 10 9 10 15 13 11 14 18 19 12 9 9 10 10 10 9 9 9 9 9 8 8 7 7 7 6
4 3 2 1 1 2 4 4 5 5 7 8 7 8 9 9 8 8 9 13 16 17 12 14 18 19 17 9 9 9 9 9 9 9 9 8 8 7 7 7 7 7 6 7
3 3 2 1 2 2 4 5 6 6 7 6 8 8 7 7 8 10 10 12 15 15 11 13 17 17 12 9 9 9 9 9 9 8 8 7 7 7 7 6 6 6 5 5
3 2 1 1 2 2 3 4 4 5 6 7 7 7 8 8 9 9 9 11 13 14 11 10 11 12 9 9 9 9 9 9 9 8 7 7 7 7 6 6 6 5 5 4
2 1 0 1 1 2 2 3 4 5 6 7 8 8 9 9 9 9 10 10 10 10 10 9 9 9 9 9 9 9 8 8 7 7 7 7 6 6 6 6 5 5 4 3
Wind_Direction
68 63 77 58 40 44 56 60 97 126 131 139 133 117 97 77 66 56 46 37 31 24 18 14 11 8 3 358 356 349 341 335 328 317 300 274 248 227 214 206 202 196 191 189
67 53 74 63 42 50 56 74 107 121 119 119 116 112 98 78 64 50 35 25 19 14 9 5 1 355 351 348 345 340 335 330 326 316 300 275 252 234 221 214 208 202 199 196
89 352 56 43 10 36 84 78 130 148 134 144 144 136 110 83 56 34 18 10 5 1 358 353 350 345 341 338 336 334 329 325 321 314 302 287 265 243 230 223 216 212 208 204
105 128 128 62 23 55 113 87 84 105 123 149 152 133 111 85 31 10 0 352 350 347 345 342 340 339 335 332 332 330 326 322 318 310 301 291 274 255 243 231 222 217 213 210
131 140 209 196 200 190 187 142 168 158 145 135 132 163 194 159 358 348 341 336 334 334 330 330 333 333 329 329 329 326 324 320 315 307 298 289 275 262 251 238 230 225 218 213
153 206 218 126 128 156 228 214 174 176 168 162 179 240 208 126 333 332 332 330 329 327 325 326 331 330 325 325 325 323 320 313 308 301 293 286 278 269 255 241 235 228 224 218
191 228 239 131 142 168 208 113 153 177 179 183 213 307 7 325 316 319 319 321 323 321 321 323 326 324 319 318 318 317 313 308 304 299 292 287 281 270 256 244 238 232 227 223
196 217 219 149 162 200 138 111 155 172 184 201 234 294 298 299 302 305 310 313 317 315 314 316 319 317 312 311 313 312 309 305 302 299 295 286 279 271 257 244 239 235 231 228
219 239 78 171 196 133 140 165 176 185 194 206 234 261 277 287 294 301 305 308 309 309 308 309 312 310 306 309 313 312 308 304 302 300 294 286 277 270 259 244 239 237 231 229
241 236 216 211 207 198 186 180 173 181 192 212 243 263 275 283 291 297 301 303 305 304 302 304 307 306 302 305 308 306 304 303 301 299 295 289 277 265 256 247 240 238 234 232
238 229 215 221 212 198 183 175 169 177 207 229 248 263 275 283 287 291 295 297 297 296 297 300 304 302 302 302 303 302 301 300 298 295 293 290 282 269 259 254 248 244 240 234
220 196 194 194 188 182 182 189 191 197 223 241 254 268 278 282 285 288 291 295 294 294 295 297 299 298 299 299 298 296 296 297 295 293 292 290 288 284 264 256 259 255 251 245
169 137 152 127 157 173 184 191 198 217 237 256 265 270 275 280 285 287 289 292 293 295 295 295 295 295 296 298 294 290 290 292 291 291 290 290 289 288 288 278 263 258 254 248
158 142 154 174 175 178 182 186 204 233 249 258 266 271 275 281 286 288 290 294 295 293 291 291 291 291 295 296 292 288 289 288 287 286 286 287 287 286 284 284 284 279 262 253
184 187 163 147 155 167 174 186 220 247 261 269 271 275 280 284 288 291 294 296 294 291 289 290 290 291 297 295 290 287 287 286 286 285 283 283 285 284 282 279 276 277 279 266
160 152 153 165 181 189 198 215 239 259 270 278 282 284 286 287 288 290 292 293 291 291 293 293 290 293 297 293 289 286 283 281 284 285 283 282 282 282 282 281 277 273 269 268
154 169 183 196 203 209 220 232 247 264 275 279 285 292 293 292 291 291 293 294 289 287 289 288 289 293 293 289 287 285 285 284 283 281 278 278 280 280 281 280 277 274 270 266
178 174 179 188 202 216 235 248 259 269 275 284 292 292 290 290 292 296 300 302 298 293 290 289 291 296 293 289 286 284 283 282 281 280 280 277 277 277 277 277 278 277 280 276
161 159 166 177 192 213 238 255 266 275 283 289 290 289 289 289 291 295 300 299 296 297 302 306 304 300 294 292 291 284 282 282 282 279 278 278 278 276 275 276 277 278 278 278
154 153 157 163 178 214 250 270 281 285 289 291 290 291 293 295 297 299 299 293 288 292 300 303 304 300 297 295 293 286 282 281 282 282 281 278 278 277 274 274 275 275 274 272
160 160 164 177 219 256 268 280 285 290 296 294 290 292 296 300 302 301 299 298 301 308 308 305 303 300 300 300 296 288 283 281 281 282 281 281 282 280 276 273 274 274 274 274
165 169 182 201 245 276 288 289 288 293 298 300 298 299 301 303 306 303 293 292 303 313 314 306 304 304 309 306 296 291 287 285 283 282 281 281 280 280 279 276 276 277 276 275
165 173 188 214 253 283 296 294 294 296 299 303 304 305 304 303 304 303 305 308 312 314 314 305 308 311 313 310 300 295 292 289 287 285 283 282 281 280 279 278 276 275 275 277
161 171 185 210 254 282 297 307 306 300 299 299 298 300 303 305 304 300 299 308 315 315 311 310 316 318 319 312 304 300 296 293 291 288 286 284 283 281 279 278 278 278 275 275
158 163 169 199 260 284 298 308 309 307 309 308 309 310 307 304 304 310 311 311 316 318 315 316 319 322 320 311 308 305 301 297 296 295 292 291 289 288 286 284 282 281 279 276
161 173 198 240 270 290 301 306 308 313 317 316 316 318 318 316 313 313 313 315 316 318 319 316 318 319 317 314 312 310 307 305 303 302 301 300 297 295 292 290 289 286 284 283
147 156 212 274 283 292 299 302 306 312 316 314 312 316 320 320 318 320 319 318 319 319 318 318 318 318 317 316 315 313 311 309 307 306 305 304 301 297 296 294 292 290 289 286
Height
1470 1470 1469 1468 1466 1464 1464 1461 1460 1467 1472 1479 1483 1485 1487 1488 1488 1487 1486 1485 1484 1483 1482 1481 1480 1479 1478 1476 1475 1474 1473 1472 1471 1470 1470 1469 1469 1469 1469 1470 1470 1471 1472 1473
1472 1471 1469 1470 1471 1470 1470 1469 1470 1473 1479 1483 1486 1487 1488 1489 1489 1488 1487 1486 1485 1484 1483 1481 1479 1478 1477 1475 1473 1472 1470 1469 1467 1466 1466 1465 1465 1465 1465 1465 1465 1466 1467 1467
1470 1472 1468 1470 1476 1475 1475 1477 1474 1473 1480 1485 1487 1488 1489 1489 1489 1489 1488 1487 1485 1484 1482 1481 1479 1477 1475 1473 1471 1469 1467 1465 1464 1462 1461 1460 1460 1460 1460 1460 1460 1460 1461 1462
1472 1471 1475 1479 1482 1481 1479 1480 1481 1481 1484 1485 1487 1489 1489 1489 1489 1488 1487 1486 1485 1483 1481 1479 1477 1475 1473 1470 1468 1465 1463 1461 1459 1458 1456 1455 1455 1454 1454 1454 1454 1454 1455 1456
1471 1470 1472 1479 1481 1481 1479 1480 1483 1483 1485 1487 1488 1488 1488 1488 1488 1487 1486 1485 1483 1481 1479 1477 1474 1472 1469 1467 1464 1462 1460 1457 1455 1454 1452 1451 1450 1449 1448 1448 1448 1448 1448 1449
1472 1469 1469 1474 1481 1483 1483 1478 1483 1484 1485 1486 1487 1484 1485 1487 1486 1486 1484 1483 1481 1479 1476 1474 1471 1468 1466 1463 1460 1458 1455 1453 1451 1449 1447 1445 1444 1443 1442 1442 1441 1441 1442 1442
1472 1471 1469 1478 1482 1484 1480 1475 1482 1483 1484 1486 1486 1486 1487 1485 1485 1484 1482 1480 1478 1476 1474 1471 1468 1465 1462 1459 1456 1454 1451 1448 1446 1444 1441 1440 1438 1437 1436 1435 1435 1435 1435 1435
1473 1472 1473 1479 1481 1480 1477 1480 1481 1483 1484 1485 1485 1485 1484 1484 1483 1481 1480 1478 1475 1473 1470 1468 1464 1461 1458 1455 1452 1449 1446 1443 1441 1438 1436 1434 1432 1431 1429 1429 1428 1428 1428 1428
1473 1474 1476 1478 1478 1479 1479 1480 1481 1482 1483 1483 1484 1483 1483 1482 1480 1478 1477 1474 1472 1469 1466 1464 1461 1458 1454 1451 1447 1444 1441 1438 1435 1432 1430 1428 1426 1424 1423 1422 1421 1421 1421 1421
1475 1474 1476 1477 1477 1478 1478 1479 1480 1481 1482 1482 1482 1481 1480 1479 1477 1475 1473 1471 1468 1465 1462 1459 1457 1453 1450 1446 1443 1439 1436 1432 1429 1426 1424 1422 1420 1418 1416 1415 1414 1414 1414 1414
1472 1473 1475 1474 1475 1476 1477 1478 1479 1479 1480 1480 1479 1478 1477 1476 1474 1472 1469 1467 1464 1461 1458 1455 1451 1448 1445 1441 1438 1434 1430 1427 1423 1420 1417 1415 1413 1411 1409 1408 1408 1407 1407 1407
1465 1467 1469 1470 1471 1473 1475 1476 1477 1477 1477 1477 1476 1475 1474 1472 1470 1468 1465 1462 1459 1456 1453 1449 1446 1442 1439 1436 1432 1428 1424 1421 1418 1414 1411 1409 1406 1404 1402 1401 1400 1400 1399 1400
1465 1465 1467 1468 1470 1471 1473 1474 1474 1475 1475 1474 1473 1472 1470 1468 1466 1463 1460 1457 1454 1451 1447 1444 1440 1436 1433 1430 1426 1422 1419 1415 1412 1409 1406 1403 1400 1397 1395 1393 1393 1392 1392 1392
1463 1465 1466 1467 1468 1470 1471 1472 1472 1472 1472 1471 1470 1468 1466 1463 1461 1458 1455 1452 1449 1445 1441 1438 1434 1431 1427 1424 1420 1416 1412 1409 1406 1403 1400 1397 1394 1392 1390 1387 1385 1384 1385 1385
1461 1463 1465 1466 1467 1468 1469 1469 1469 1469 1468 1467 1466 1464 1462 1459 1456 1453 1450 1446 1443 1439 1436 1432 1428 1424 1421 1417 1413 1410 1406 1403 1400 1397 1394 1391 1389 1386 1384 1382 1380 1378 1378 1378
1459 1461 1463 1464 1465 1466 1466 1466 1466 1466 1465 1463 1461 1459 1457 1454 1451 1447 1444 1441 1437 1433 1429 1425 1421 1418 1414 1411 1407 1403 1400 1397 1394 1391 1388 1385 1383 1380 1378 1376 1375 1373 1372 1372
1457 1459 1461 1462 1463 1463 1464 1464 1463 1462 1461 1459 1457 1455 1452 1448 1445 1441 1438 1435 1431 1427 1423 1419 1415 1411 1408 1404 1401 1397 1393 1390 1387 1385 1382 1379 1377 1375 1373 1371 1369 1368 1367 1366
1455 1457 1458 1460 1460 1461 1461 1460 1460 1458 1457 1455 1452 1449 1446 1443 1439 1435 1432 1428 1424 1420 1417 1413 1409 1405 1401 1398 1394 1391 1387 1384 1381 1379 1376 1374 1371 1369 1367 1365 1364 1362 1361 1361
1453 1455 1456 1457 1458 1458 1458 1457 1456 1454 1452 1450 1447 1444 1441 1437 1434 1430 1426 1421 1417 1413 1410 1406 1402 1398 1395 1391 1388 1384 1381 1378 1375 1373 1370 1368 1366 1364 1362 1360 1359 1357 1356 1356
1452 1453 1454 1455 1456 1455 1455 1453 1452 1450 1448 1445 1442 1438 1435 1432 1428 1424 1419 1415 1411 1407 1403 1399 1395 1391 1388 1384 1381 1378 1375 1372 1369 1367 1365 1362 1360 1358 1357 1355 1353 1352 1351 1351
1450 1451 1452 1453 1453 1452 1451 1450 1448 1446 1443 1440 1437 1433 1429 1426 1422 1418 1413 1408 1405 1401 1396 1392 1389 1385 1381 1378 1375 1372 1369 1366 1364 1361 1359 1357 1355 1353 1351 1350 1349 1347 1346 1346
1448 1449 1450 1450 1450 1449 1448 1446 1444 1441 1439 1435 1432 1428 1424 1420 1416 1412 1408 1404 1399 1395 1390 1386 1383 1379 1376 1372 1369 1366 1363 1360 1358 1356 1353 1352 1350 1348 1346 1345 1344 1343 1342 1341
1446 1447 1448 1447 1447 1446 1444 1442 1440 1437 1434 1431 1427 1423 1419 1415 1411 1406 1402 1398 1393 1389 1385 1381 1377 1373 1370 1366 1363 1360 1357 1355 1352 1350 1348 1346 1344 1343 1341 1340 1339 1338 1337 1337
1444 1445 1445 1444 1443 1442 1440 1438 1436 1433 1430 1426 1423 1419 1414 1410 1405 1402 1397 1393 1388 1384 1379 1376 1372 1368 1364 1361 1357 1354 1352 1349 1347 1345 1343 1341 1339 1338 1336 1335 1334 1333 1333 1332
1442 1442 1441 1441 1440 1438 1436 1434 1431 1428 1425 1422 1418 1414 1410 1406 1401 1396 1392 1388 1383 1379 1375 1371 1367 1363 1359 1356 1353 1350 1347 1344 1342 1340 1338 1336 1335 1333 1332 1331 1330 1329 1329 1328
1439 1439 1438 1437 1436 1434 1432 1429 1427 1423 1420 1416 1413 1409 1405 1401 1397 1392 1388 1384 1380 1375 1371 1367 1363 1359 1355 1352 1349 1346 1343 1340 1338 1336 1334 1332 1331 1329 1328 1327 1326 1326 1325 1325
1436 1436 1435 1434 1432 1430 1428 1425 1423 1419 1416 1412 1408 1405 1401 1397 1393 1389 1384 1380 1376 1372 1368 1364 1360 1356 1352 1349 1345 1342 1339 1337 1334 1332 1330 1329 1327 1326 1325 1324 1323 1322 1322 1322